Baltimore, MD

1:40 PM EST on February 13, 2016 (GMT -0500)
Martin State

Weather History for KMTN - May, 2013

Change the Weather History Date:

Tuesday, May 21, 2013

  Actual Average (KDMH) Record (KDMH)
Temperature  
Mean Temperature 73 °F 68 °F  
Max Temperature 80 °F 77 °F - ()
Min Temperature 66 °F 59 °F - ()
Degree Days  
Heating Degree Days 0 2  
Month to date heating degree days 68  
Since 1 July heating degree days 4013  
Cooling Degree Days 8 4  
Month to date cooling degree days 58  
Year to date cooling degree days 83  
Growing Degree Days 23 (Base 50)    
Moisture  
Dew Point 69 °F    
Average Humidity 93    
Maximum Humidity 100    
Minimum Humidity 74    
Precipitation  
Precipitation 0.00 in 0.12 in - ()
Month to date precipitation 2.21  
Year to date precipitation 14.81  
Sea Level Pressure  
Sea Level Pressure 29.97 in    
Wind  
Wind Speed 3 mph (SSE)    
Max Wind Speed 14 mph    
Max Gust Speed -    
Visibility 9 miles    
Events      
T = Trace of Precipitation, MM = Missing Value Source: NWS Daily Summary

Daily Weather History Graph

Daily Weather History Graph

Search for Another Location

Airport or City:

Trip Planner

Search our weather history database for the weather conditions in past years. The results will help you decide how hot, cold, wet, or windy it might be!

Date:

Astronomy

May. 21, 2013 Rise Set
Actual Time 5:47 AM EDT 8:17 PM EDT
Civil Twilight 5:16 AM EDT 8:48 PM EDT
Nautical Twilight 4:37 AM EDT 9:27 PM EDT
Astronomical Twilight 3:55 AM EDT 10:10 PM EDT
Moon 4:30 PM EDT (5/21) 3:12 AM EDT (5/21)
Length of Visible Light 15h 32m
Length of Day
14h 30m
Waxing Gibbous, 84% of the Moon is Illuminated
May 21
Waxing Gibbous
May 25
Full
May 31
Last Quarter
Jun 8
New
Jun 16
First Quarter

Hourly Weather History & Observations

Time (EDT) Temp. Heat Index Dew Point Humidity Pressure Visibility Wind Dir Wind Speed Gust Speed Precip Events Conditions
12:03 AM 69.8 °F - 68.0 °F 94% 30.00 in 10.0 mi Calm Calm - N/A   Clear
12:21 AM 69.8 °F - 68.0 °F 94% 30.00 in 10.0 mi SSE 4.6 mph - N/A   Clear
12:42 AM 69.8 °F - 68.0 °F 94% 30.01 in 10.0 mi Calm Calm - N/A   Clear
1:03 AM 68.0 °F - 68.0 °F 100% 30.00 in 10.0 mi SSE 3.5 mph - N/A   Clear
1:21 AM 68.0 °F - 68.0 °F 100% 30.00 in 10.0 mi SE 3.5 mph - N/A   Clear
1:42 AM 68.0 °F - 68.0 °F 100% 29.99 in 10.0 mi Calm Calm - N/A   Clear
2:03 AM 68.0 °F - 68.0 °F 100% 29.99 in 10.0 mi SE 3.5 mph - N/A   Clear
2:24 AM 68.0 °F - 68.0 °F 100% 29.99 in 10.0 mi SSE 3.5 mph - N/A   Clear
2:42 AM 68.0 °F - 68.0 °F 100% 29.98 in 10.0 mi SSE 4.6 mph - N/A   Clear
3:03 AM 68.0 °F - 68.0 °F 100% 29.98 in 10.0 mi South 4.6 mph - N/A   Clear
3:24 AM 68.0 °F - 68.0 °F 100% 29.98 in 10.0 mi Calm Calm - N/A   Clear
3:42 AM 68.0 °F - 68.0 °F 100% 29.97 in 10.0 mi Calm Calm - N/A   Clear
4:03 AM 68.0 °F - 68.0 °F 100% 29.97 in 10.0 mi Calm Calm - N/A   Clear
4:24 AM 68.0 °F - 68.0 °F 100% 29.97 in 10.0 mi SE 3.5 mph - N/A   Clear
4:42 AM 66.2 °F - 66.2 °F 100% 29.97 in 10.0 mi Calm Calm - N/A   Scattered Clouds
5:03 AM 66.2 °F - 66.2 °F 100% 29.97 in 10.0 mi South 3.5 mph - N/A   Mostly Cloudy
5:24 AM 68.0 °F - 68.0 °F 100% 29.98 in 10.0 mi Calm Calm - N/A   Overcast
5:36 AM 68.0 °F - 68.0 °F 100% 29.98 in 10.0 mi Calm Calm - N/A   Overcast
5:55 AM 68.0 °F - 68.0 °F 100% 29.99 in 5.0 mi SW 6.9 mph - N/A   Overcast
6:50 AM 68.0 °F - 68.0 °F 100% 30.01 in 4.0 mi South 4.6 mph - N/A   Overcast
7:55 AM 69.8 °F - 68.0 °F 94% 30.01 in 3.0 mi SSE 4.6 mph - N/A   Overcast
8:55 AM 71.6 °F - 69.8 °F 94% 30.02 in 4.0 mi SSE 4.6 mph - N/A   Overcast
9:50 AM 71.6 °F - 68.0 °F 88% 30.00 in 5.0 mi South 4.6 mph - N/A   Overcast
10:50 AM 73.4 °F - 68.0 °F 83% 30.00 in 5.0 mi South 5.8 mph - N/A   Overcast
11:50 AM 77.0 °F - 71.6 °F 83% 29.99 in 5.0 mi SE 5.8 mph - N/A   Overcast
12:45 PM 77.0 °F - 71.6 °F 83% 29.99 in 10.0 mi SE 9.2 mph - N/A   Mostly Cloudy
1:45 PM 78.8 °F - 71.6 °F 78% 29.97 in 10.0 mi SE 11.5 mph - N/A   Partly Cloudy
2:55 PM 78.8 °F - 71.6 °F 78% 29.96 in 10.0 mi ESE 11.5 mph - N/A   Partly Cloudy
3:45 PM 78.8 °F - 71.6 °F 78% 29.94 in 10.0 mi SE 11.5 mph - N/A   Partly Cloudy
5:45 PM 80.6 °F 84.6 °F 71.6 °F 74% 29.90 in 10.0 mi SE 11.5 mph - N/A   Partly Cloudy
6:45 PM 78.8 °F - 69.8 °F 74% 29.90 in 10.0 mi SSE 13.8 mph - N/A   Partly Cloudy
7:50 PM 77.0 °F - 69.8 °F 78% 29.90 in 10.0 mi SSE 12.7 mph - N/A   Scattered Clouds
8:55 PM 75.2 °F - 69.8 °F 83% 29.90 in 10.0 mi SSE 12.7 mph - N/A   Scattered Clouds
10:18 PM 71.6 °F - 69.8 °F 94% 29.90 in 10.0 mi SSE 5.8 mph - N/A   Clear
10:36 PM 71.6 °F - 69.8 °F 94% 29.91 in 10.0 mi Calm Calm - N/A   Clear
10:57 PM 71.6 °F - 69.8 °F 94% 29.91 in 10.0 mi SSE 3.5 mph - N/A   Clear
11:18 PM 71.6 °F - 68.0 °F 88% 29.91 in 10.0 mi Calm Calm - N/A   Clear
11:36 PM 69.8 °F - 69.8 °F 100% 29.90 in 10.0 mi Calm Calm - N/A   Clear
11:57 PM 69.8 °F - 68.0 °F 94% 29.90 in 7.0 mi Calm Calm - N/A   Clear